Regional Weather Roundup
Issued by NWS

Home | Current Version | Previous Version | Graphics & Text | Print | Product List | Glossary On
Versions: 1 2 3 4 5 6 7 8 9 10 11 12 13 14 15 16 17 18 19 20 21 22 23 24 25 26 27 28 29 30 31 32 33 34 35 36 37 38 39 40 41 42 43 44 45 46 47 48 49 50
000
ASUS43 KIND 241609
RWRIN

WEATHER ROUNDUP FOR INDIANA
NATIONAL WEATHER SERVICE INDIANAPOLIS IN
1200 PM EDT MON APR 24 2017

NOTE: "FAIR" INDICATES FEW OR NO CLOUDS BELOW 12,000 FEET WITH NO
SIGNIFICANT WEATHER AND/OR OBSTRUCTIONS TO VISIBILITY.

* - STATION DOES NOT REPORT WEATHER SUCH AS PRECIPITATION OR FOG.

+ - STATION NOT QUALITY CONTROLLED BY THE NATIONAL WEATHER SERVICE.
    USE DATA WITH CAUTION...ESPECIALLY DEWPOINT AND RELATIVE
    HUMIDITY OBSERVATIONS.

INZ001>003-010>013-019-020-241700-
NORTHWEST INDIANA

CITY           SKY/WX    TMP DP  RH WIND       PRES   REMARKS
GARY /AIRPORT/ MOSUNNY   59  43  55 CALM      30.01F
KNOX *+        SUNNY    N/A N/A N/A E15       30.00F
LA PORTE +     SUNNY     67  31  26 E13       30.01F
MICHIGAN CITY+ SUNNY     68  32  26 SE6G16    30.01F
MONTICELLO +   SUNNY     65  31  27 E8        29.98F
RENSSELAER +   SUNNY     68  28  22 E10G16    29.99F
VALPARAISO     SUNNY     68  30  24 E14G20    30.00F

$$

LMZ046-743>745-241700-
SOUTHERN LAKE MICHIGAN

STATION/POSITION TIME  TEMP    WIND        PRES    WAVE
                       AIR SEA DIR/SP/G            HT
                 (UTC) (F)     (DEG/KT/KT) (MB)    (FT)
BURNS HARBOR     1601   48      CALM  /  2 1016.3
MICHIGAN CITY    1540   53     360/  7/  8   N/A

$$

INZ004-005-014>016-021>024-241700-
NORTH CENTRAL INDIANA

CITY           SKY/WX    TMP DP  RH WIND       PRES   REMARKS
ELKHART        SUNNY     66  30  26 E7        30.02F
GOSHEN         SUNNY     65  28  24 E14       30.01F
LOGANSPORT +   SUNNY     64  32  29 NE8       29.99F
PERU/GRISSOM   SUNNY     67  34  30 E12       29.98F
ROCHESTER +    SUNNY     70  27  19 E12       30.00F
SOUTH BEND     SUNNY     66  32  28 E8        30.02F
WARSAW +       SUNNY     66  32  28 E10G17    30.01F

$$

INZ006>009-017-018-025>027-241700-
NORTHEAST INDIANA

CITY           SKY/WX    TMP DP  RH WIND       PRES   REMARKS
ANGOLA *+      SUNNY     63  32  31 SE10      30.02F
AUBURN +       SUNNY     64  34  32 E10G16    30.02F
FORT WAYNE     MOSUNNY   64  37  36 E10       30.00F
HUNTINGTON +   SUNNY     65  34  32 E9        29.99F
KENDALLVILLE + SUNNY     63  33  32 E13       30.02F

$$

INZ028-029-035-036-043>045-051>053-241700-
WEST CENTRAL INDIANA

CITY           SKY/WX    TMP DP  RH WIND       PRES   REMARKS
CRAWFORDSVL +  SUNNY     66  35  31 NE12G21   29.96F
GREENCASTLE +  SUNNY     68  32  26 NE15      29.95F
LAFAYETTE      SUNNY     66  37  34 E14       29.96F
TERRE HAUTE    SUNNY     70  34  26 E14       29.93F

$$

INZ030>032-037>040-046>048-054>057-064-065-241700-
CENTRAL INDIANA

CITY           SKY/WX    TMP DP  RH WIND       PRES   REMARKS
ANDERSON       SUNNY     66  36  32 NE17G23   29.96F
CP ATTERBURY + SUNNY     68  34  28 NE14G20   29.94F
COLUMBUS       SUNNY     66  27  22 NE16G25   29.94S
FISHERS *+     SUNNY     68  39  34 E12G18    29.95
FRANKFORT +    SUNNY     71  33  24 SE16      29.98F
GREENWOOD *+   SUNNY     68  32  25 E14G21    29.95F
INDIANAPOLIS   MOSUNNY   69  34  27 NE16      29.94F
-EAGLE CREEK   SUNNY     68  34  28 NE14      29.94F
KOKOMO +       SUNNY     67  34  29 E15       29.99F
MARION +       SUNNY     64  34  32 E10G17    29.98F
MT COMFORT *+  SUNNY     68  36  30 E15G22    29.96S
SHELBYVILLE    SUNNY     72  31  22 NE17      29.93F
ZIONSVILLE +   SUNNY     66  32  28 E15       29.96F

$$

INZ033-034-041-042-049-050-058-059-241700-
EAST CENTRAL INDIANA

CITY           SKY/WX    TMP DP  RH WIND       PRES   REMARKS
MUNCIE         SUNNY     70  32  24 E15G25    29.96F
RICHMOND +     SUNNY     64  34  32 E15G23    29.94F

$$

INZ060-061-067>069-081>083-085>088-241700-
SOUTHWEST INDIANA

CITY           SKY/WX    TMP DP  RH WIND       PRES   REMARKS
EVANSVILLE     SUNNY     70  41  34 NE7       29.90F
HUNTINGBURG *+ SUNNY     66  43  43 NE9       29.89F
WASHINGTON +   SUNNY     69  28  21 CALM      29.90F

$$

INZ062-063-066-070>080-084-089>092-241700-
SOUTH CENTRAL AND SOUTHEAST INDIANA

CITY           SKY/WX    TMP DP  RH WIND       PRES   REMARKS
BEDFORD +      SUNNY    N/A N/A N/A E16       29.90
BLOOMINGTON    SUNNY     70  31  23 NE12G20   29.92F
MADISON *+     SUNNY     66  36  32 NE8       29.92S
NORTH VERNON + SUNNY     66  30  26 NE12      29.92
SEYMOUR +      SUNNY     70  37  30 NE12G17   29.91F

$$




USA.gov is the U.S. government's official web portal to all federal, state and local government web resources and services.